Location: �clusier
(49.9361°N, 2.7869°E)
Time: 22:20:28
(UTC+00:00)

Cosmos 1300 - Pass Details

Date: 16 June 2021
Orbit: 509 x 513 km, 82.5° (Epoch: 01 August)

Event Time Altitude Azimuth Distance (km) Brightness Sun altitude
Rises 22:02:30 0° 348° (NNW) 2,641 8.0 -12.9°
Reaches altitude 10° 22:04:39 10° 347° (NNW) 1,749 6.8 -13.1°
Maximum altitude 22:08:28 77° 263° (W) 534 2.7 -13.3°
Enters shadow 22:10:54 21° 179° (S) 1,185 4.0 -13.5°
